Oscoda, MI

9:33 PM EDT on May 28, 2017 (GMT -0400)
Oscoda-Wurtsmith

Weather History for KOSC - October, 2011

Change the Weather History Date:

Tuesday, October 18, 2011

  Actual Average Record
Temperature  
Mean Temperature 46 °F -  
Max Temperature 51 °F 53 °F 76 °F (2016)
Min Temperature 41 °F 37 °F 26 °F (1997)
Degree Days  
Heating Degree Days 19    
Moisture  
Dew Point 38 °F    
Average Humidity 72    
Maximum Humidity 87    
Minimum Humidity 54    
Precipitation  
Precipitation 0.00 in - - ()
Sea Level Pressure  
Sea Level Pressure 29.75 in    
Wind  
Wind Speed 5 mph (WNW)    
Max Wind Speed 8 mph    
Max Gust Speed -    
Visibility 10 miles    
Events      
Averages and records for this station are not official NWS values.
T = Trace of Precipitation, MM = Missing Value Source: NWS Daily Summary

Daily Weather History Graph

Daily Weather History Graph

Search for Another Location

Airport or City:

Trip Planner

Search our weather history database for the weather conditions in past years. The results will help you decide how hot, cold, wet, or windy it might be!

Date:

Astronomy

Oct. 18, 2011 Rise Set
Actual Time 7:52 AM EDT 6:44 PM EDT
Civil Twilight 7:22 AM EDT 7:14 PM EDT
Nautical Twilight 6:48 AM EDT 7:47 PM EDT
Astronomical Twilight 6:15 AM EDT 8:21 PM EDT
Moon 11:16 PM EDT (10/18) 1:50 PM EDT (10/18)
Length of Visible Light 11h 51m
Length of Day
10h 52m
Waning Gibbous, 65% of the Moon is Illuminated
Oct 18
Waning Gibbous
Oct 19
Last Quarter
Oct 26
New
Nov 2
First Quarter
Nov 10
Full

Hourly Weather History & Observations

Time (EDT) Temp. Windchill Dew Point Humidity Pressure Visibility Wind Dir Wind Speed Gust Speed Precip Events Conditions
12:13 AM 42.8 °F 38.6 °F 37.4 °F 81% 29.69 in 10.0 mi SW 6.9 mph - N/A   Overcast
12:33 AM 44.6 °F 40.2 °F 37.4 °F 76% 29.69 in 10.0 mi WSW 8.1 mph - N/A   Mostly Cloudy
12:54 AM 42.8 °F 38.6 °F 37.4 °F 81% 29.69 in 10.0 mi WSW 6.9 mph - N/A   Mostly Cloudy
1:13 AM 42.8 °F 38.0 °F 35.6 °F 76% 29.69 in 10.0 mi WSW 8.1 mph - N/A   Scattered Clouds
1:33 AM 44.6 °F 41.4 °F 37.4 °F 76% 29.69 in 10.0 mi WSW 5.8 mph - N/A   Mostly Cloudy
1:53 AM 44.6 °F 40.7 °F 37.4 °F 76% 29.68 in 10.0 mi SW 6.9 mph - N/A   Overcast
2:13 AM 44.6 °F 41.4 °F 37.4 °F 76% 29.69 in 10.0 mi WSW 5.8 mph - N/A   Overcast
2:34 AM 44.6 °F 40.7 °F 39.2 °F 81% 29.69 in 10.0 mi SW 6.9 mph - N/A   Overcast
2:53 AM 46.4 °F 43.5 °F 37.4 °F 71% 29.69 in 10.0 mi SW 5.8 mph - N/A   Overcast
3:13 AM 44.6 °F 41.4 °F 37.4 °F 76% 29.69 in 10.0 mi SW 5.8 mph - N/A   Overcast
3:34 AM 44.6 °F 43.1 °F 37.4 °F 76% 29.69 in 10.0 mi SW 3.5 mph - N/A   Overcast
3:53 AM 42.8 °F - 37.4 °F 81% 29.70 in 10.0 mi Calm Calm - N/A   Overcast
4:13 AM 44.6 °F 43.1 °F 37.4 °F 76% 29.69 in 10.0 mi NNW 3.5 mph - N/A   Overcast
4:34 AM 42.8 °F - 37.4 °F 81% 29.70 in 10.0 mi Calm Calm - N/A   Overcast
4:53 AM 42.8 °F - 37.4 °F 81% 29.70 in 10.0 mi Calm Calm - N/A   Overcast
5:13 AM 42.8 °F - 37.4 °F 81% 29.71 in 10.0 mi Calm Calm - N/A   Overcast
5:34 AM 41.0 °F 39.0 °F 37.4 °F 87% 29.71 in 10.0 mi WNW 3.5 mph - N/A   Overcast
5:53 AM 41.0 °F 39.0 °F 35.6 °F 81% 29.71 in 10.0 mi WNW 3.5 mph - N/A   Overcast
6:13 AM 42.8 °F 40.1 °F 37.4 °F 81% 29.72 in 10.0 mi WNW 4.6 mph - N/A   Overcast
6:34 AM 42.8 °F 40.1 °F 37.4 °F 81% 29.72 in 10.0 mi WNW 4.6 mph - N/A   Overcast
6:53 AM 42.8 °F 41.1 °F 37.4 °F 81% 29.72 in 10.0 mi WNW 3.5 mph - N/A   Overcast
7:13 AM 42.8 °F 41.1 °F 37.4 °F 81% 29.72 in 10.0 mi WNW 3.5 mph - N/A   Overcast
7:33 AM 41.0 °F 37.1 °F 37.4 °F 87% 29.73 in 10.0 mi West 5.8 mph - N/A   Overcast
7:53 AM 42.8 °F 39.3 °F 37.4 °F 81% 29.74 in 10.0 mi WSW 5.8 mph - N/A   Overcast
8:13 AM 42.8 °F 41.1 °F 37.4 °F 81% 29.74 in 10.0 mi West 3.5 mph - N/A   Overcast
8:34 AM 44.6 °F 42.2 °F 37.4 °F 76% 29.75 in 10.0 mi WNW 4.6 mph - N/A   Overcast
8:53 AM 44.6 °F 42.2 °F 37.4 °F 76% 29.76 in 10.0 mi West 4.6 mph - N/A   Overcast
9:13 AM 44.6 °F 41.4 °F 37.4 °F 76% 29.76 in 10.0 mi West 5.8 mph - N/A   Overcast
9:34 AM 46.4 °F 45.2 °F 39.2 °F 76% 29.77 in 10.0 mi WNW 3.5 mph - N/A   Overcast
9:53 AM 46.4 °F 45.2 °F 37.4 °F 71% 29.77 in 10.0 mi WNW 3.5 mph - N/A   Scattered Clouds
10:13 AM 50.0 °F - 39.2 °F 66% 29.77 in 10.0 mi West 3.5 mph - N/A   Scattered Clouds
10:33 AM 50.0 °F - 39.2 °F 66% 29.77 in 10.0 mi NW 5.8 mph - N/A   Overcast
10:53 AM 50.0 °F - 39.2 °F 66% 29.78 in 10.0 mi NNW 6.9 mph - N/A   Overcast
11:13 AM 50.0 °F - 37.4 °F 62% 29.79 in 10.0 mi NW 4.6 mph - N/A   Overcast
11:33 AM 50.0 °F - 39.2 °F 66% 29.79 in 10.0 mi NNW 4.6 mph - N/A   Overcast
11:53 AM 50.0 °F - 37.4 °F 62% 29.79 in 10.0 mi NNW 5.8 mph - N/A   Overcast
12:13 PM 50.0 °F - 37.4 °F 62% 29.80 in 10.0 mi NW 5.8 mph - N/A   Overcast
12:33 PM 50.0 °F - 37.4 °F 62% 29.81 in 10.0 mi NW 8.1 mph - N/A   Overcast
12:53 PM 51.8 °F - 37.4 °F 58% 29.80 in 10.0 mi NW 5.8 mph - N/A   Overcast
1:14 PM 51.8 °F - 37.4 °F 58% 29.80 in 10.0 mi WNW 6.9 mph - N/A   Overcast
1:33 PM 51.8 °F - 37.4 °F 58% 29.79 in 10.0 mi West 3.5 mph - N/A   Overcast
1:53 PM 51.8 °F - 37.4 °F 58% 29.79 in 10.0 mi NW 6.9 mph - N/A   Overcast
2:14 PM 51.8 °F - 35.6 °F 54% 29.79 in 10.0 mi NW 5.8 mph - N/A   Overcast
2:33 PM 50.0 °F - 37.4 °F 62% 29.79 in 10.0 mi NNW 8.1 mph - N/A   Overcast
2:53 PM 51.8 °F - 37.4 °F 58% 29.80 in 10.0 mi NNW 5.8 mph - N/A   Overcast
3:14 PM 51.8 °F - 37.4 °F 58% 29.80 in 10.0 mi NNW 6.9 mph - N/A   Overcast
3:33 PM 51.8 °F - 37.4 °F 58% 29.81 in 10.0 mi NNW 3.5 mph - N/A   Overcast
3:53 PM 51.8 °F - 35.6 °F 54% 29.81 in 10.0 mi Calm Calm - N/A   Overcast
4:14 PM 51.8 °F - 37.4 °F 58% 29.82 in 10.0 mi East 6.9 mph - N/A   Overcast
4:33 PM 50.0 °F - 41.0 °F 71% 29.82 in 10.0 mi East 5.8 mph - N/A   Overcast
4:53 PM 50.0 °F - 41.0 °F 71% 29.82 in 10.0 mi East 4.6 mph - N/A   Overcast
5:14 PM 50.0 °F - 41.0 °F 71% 29.82 in 10.0 mi ENE 8.1 mph - N/A   Overcast
5:33 PM 48.2 °F - 41.0 °F 76% 29.83 in 10.0 mi NNE 10.4 mph - N/A   Overcast
5:53 PM 46.4 °F 42.9 °F 42.8 °F 87% 29.83 in 10.0 mi NNE 6.9 mph - N/A Rain Light Rain
6:14 PM 44.6 °F 41.4 °F 42.8 °F 93% 29.84 in 10.0 mi NNE 5.8 mph - N/A Rain Light Rain
6:33 PM 44.6 °F 40.7 °F 42.8 °F 93% 29.84 in 10.0 mi NNE 6.9 mph - N/A Rain Light Rain
6:53 PM 44.6 °F 43.1 °F 42.8 °F 93% 29.84 in 10.0 mi North 3.5 mph - N/A   Drizzle
7:14 PM 44.6 °F 42.2 °F 42.8 °F 93% 29.84 in 10.0 mi North 4.6 mph - N/A   Overcast
7:33 PM 44.6 °F 43.1 °F 42.8 °F 93% 29.85 in 10.0 mi NNE 3.5 mph - N/A   Overcast
7:53 PM 44.6 °F 43.1 °F 42.8 °F 93% 29.85 in 10.0 mi NNW 3.5 mph - N/A   Overcast
8:13 PM 42.8 °F 41.1 °F 42.8 °F 100% 29.85 in 10.0 mi NNW 3.5 mph - N/A   Mostly Cloudy
8:33 PM 44.6 °F 43.1 °F 41.0 °F 87% 29.85 in 10.0 mi NNW 3.5 mph - N/A   Overcast
8:53 PM 42.8 °F 40.1 °F 41.0 °F 93% 29.85 in 10.0 mi NW 4.6 mph - N/A   Overcast
9:14 PM 42.8 °F 41.1 °F 41.0 °F 93% 29.86 in 10.0 mi NNW 3.5 mph - N/A   Overcast
9:33 PM 42.8 °F 39.3 °F 41.0 °F 93% 29.86 in 10.0 mi NNW 5.8 mph - N/A   Overcast
9:53 PM 42.8 °F 38.6 °F 41.0 °F 93% 29.87 in 10.0 mi North 6.9 mph - N/A   Overcast
10:13 PM 42.8 °F 39.3 °F 41.0 °F 93% 29.88 in 10.0 mi North 5.8 mph - N/A   Overcast
10:33 PM 42.8 °F 39.3 °F 41.0 °F 93% 29.88 in 10.0 mi North 5.8 mph - N/A   Overcast
10:54 PM 42.8 °F 39.3 °F 39.2 °F 87% 29.88 in 10.0 mi North 5.8 mph - N/A   Overcast
11:14 PM 42.8 °F 38.0 °F 39.2 °F 87% 29.87 in 10.0 mi North 8.1 mph - N/A   Overcast
11:33 PM 42.8 °F 38.6 °F 39.2 °F 87% 29.87 in 10.0 mi North 6.9 mph - N/A   Overcast
11:54 PM 42.8 °F 38.0 °F 37.4 °F 81% 29.87 in 10.0 mi North 8.1 mph - N/A   Overcast